When you browse on this site, cookies collect data to enhance your experience and personalize the content and advertising you see.
Visit our Privacy Policy to learn more. By continuing to use the site, you agree to this use of cookies and data.
  • en France
  • Liste des pays
  • À 7 jours
  • Température de l'eau
  • Carte satellitaire
  • Carte météo
  • Widgets météo
  • user-avatar
    Se connecter

    Météo par heure à Canberra

    Ce jour, 23 Janvier, Mercredi

    Heure Température Précipitation Vent Pression Humidité
    00:00 +26°C° 0 mm 1 m/s 707 mmHg 49%
    01:00 +26°C° 0 mm 1 m/s 707 mmHg 50%
    02:00 +25°C° 0.4 mm 1 m/s 707 mmHg 56%
    03:00 +24°C° 0.4 mm 1 m/s 707 mmHg 61%
    04:00 +23°C° 0 mm 1 m/s 707 mmHg 69%
    05:00 +24°C° 0.1 mm 1 m/s 707 mmHg 65%
    06:00 +25°C° 0.1 mm 1 m/s 708 mmHg 62%
    07:00 +27°C° 0.1 mm 1 m/s 708 mmHg 58%
    08:00 +29°C° 0 mm 1 m/s 708 mmHg 50%
    09:00 +32°C° 0 mm 2 m/s 709 mmHg 41%
    10:00 +35°C° 0 mm 1 m/s 710 mmHg 33%
    11:00 +35°C° 0 mm 1 m/s 709 mmHg 32%
    12:00 +37°C° 0 mm 2 m/s 709 mmHg 30%
    13:00 +37°C° 0 mm 2 m/s 709 mmHg 28%
    14:00 +34°C° 0.2 mm 3 m/s 708 mmHg 41%
    15:00 +29°C° 0.2 mm 4 m/s 708 mmHg 54%
    16:00 +26°C° 0 mm 3 m/s 708 mmHg 65%
    17:00 +25°C° 0.2 mm 4 m/s 708 mmHg 69%
    18:00 +23°C° 0.2 mm 4 m/s 708 mmHg 72%
    19:00 +22°C° 0.2 mm 4 m/s 709 mmHg 75%
    20:00 +21°C° 0 mm 3 m/s 709 mmHg 79%
    21:00 +20°C° 0 mm 3 m/s 709 mmHg 83%
    22:00 +19°C° 0 mm 2 m/s 710 mmHg 88%
    23:00 +19°C° 0 mm 2 m/s 710 mmHg 88%

    Demain, 24 Janvier, Jeudi

    Heure Température Précipitation Vent Pression Humidité
    00:00 +19°C° 0 mm 3 m/s 710 mmHg 87%
    01:00 +19°C° 0 mm 3 m/s 709 mmHg 87%
    02:00 +19°C° 0 mm 3 m/s 709 mmHg 87%
    03:00 +19°C° 0 mm 2 m/s 710 mmHg 88%
    04:00 +19°C° 0 mm 2 m/s 710 mmHg 88%
    05:00 +19°C° 0 mm 2 m/s 710 mmHg 86%
    06:00 +19°C° 0 mm 2 m/s 710 mmHg 84%
    07:00 +20°C° 0 mm 2 m/s 710 mmHg 82%
    08:00 +22°C° 0 mm 3 m/s 711 mmHg 73%
    09:00 +25°C° 0 mm 3 m/s 711 mmHg 64%
    10:00 +27°C° 0 mm 3 m/s 711 mmHg 56%
    11:00 +29°C° 0 mm 3 m/s 711 mmHg 51%
    12:00 +31°C° 0 mm 3 m/s 711 mmHg 46%
    13:00 +34°C° 0 mm 3 m/s 710 mmHg 41%
    14:00 +34°C° 0 mm 3 m/s 710 mmHg 40%
    15:00 +35°C° 0 mm 3 m/s 710 mmHg 38%
    16:00 +35°C° 0 mm 3 m/s 709 mmHg 36%
    17:00 +33°C° 0 mm 3 m/s 709 mmHg 43%
    18:00 +30°C° 0 mm 4 m/s 709 mmHg 51%
    19:00 +28°C° 0 mm 4 m/s 709 mmHg 58%
    20:00 +26°C° 0 mm 4 m/s 709 mmHg 67%
    21:00 +24°C° 0 mm 3 m/s 709 mmHg 77%
    22:00 +21°C° 0 mm 2 m/s 710 mmHg 87%
    23:00 +21°C° 0 mm 2 m/s 709 mmHg 89%

    Après-demain, 25 Janvier, Vendredi

    Heure Température Précipitation Vent Pression Humidité
    00:00 +21°C° 0 mm 1 m/s 709 mmHg 91%
    01:00 +21°C° 0 mm 1 m/s 709 mmHg 93%
    02:00 +21°C° 0 mm 1 m/s 709 mmHg 93%
    03:00 +21°C° 0 mm 1 m/s 708 mmHg 93%
    04:00 +21°C° 0 mm 1 m/s 708 mmHg 92%
    05:00 +22°C° 0 mm 1 m/s 708 mmHg 86%
    06:00 +24°C° 0 mm 1 m/s 709 mmHg 80%
    07:00 +23°C° 0 mm 0 m/s 709 mmHg 74%
    08:00 +28°C° 0 mm 1 m/s 709 mmHg 61%
    09:00 +31°C° 0 mm 3 m/s 709 mmHg 48%
    10:00 +36°C° 0 mm 4 m/s 709 mmHg 35%
    11:00 +37°C° 0 mm 4 m/s 709 mmHg 31%
    12:00 +40°C° 0 mm 4 m/s 708 mmHg 27%
    13:00 +42°C° 0 mm 4 m/s 708 mmHg 23%
    14:00 +42°C° 0 mm 4 m/s 708 mmHg 22%
    15:00 +42°C° 0 mm 4 m/s 707 mmHg 21%
    16:00 +42°C° 0 mm 3 m/s 707 mmHg 21%
    17:00 +39°C° 0 mm 3 m/s 706 mmHg 24%
    18:00 +37°C° 0 mm 2 m/s 706 mmHg 27%
    19:00 +35°C° 0 mm 1 m/s 706 mmHg 30%
    20:00 +33°C° 0 mm 1 m/s 706 mmHg 33%
    21:00 +31°C° 0 mm 1 m/s 706 mmHg 36%
    22:00 +27°C° 0 mm 0 m/s 706 mmHg 39%
    23:00 +26°C° 0 mm 0 m/s 706 mmHg 40%

    26 Janvier, Samedi

    Heure Température Précipitation Vent Pression Humidité
    00:00 +26°C° 0 mm 0 m/s 705 mmHg 41%
    01:00 +25°C° 0 mm 0 m/s 705 mmHg 43%
    02:00 +27°C° 0 mm 1 m/s 705 mmHg 44%
    03:00 +26°C° 0 mm 1 m/s 705 mmHg 45%
    04:00 +26°C° 0 mm 1 m/s 705 mmHg 46%
    05:00 +27°C° 0 mm 1 m/s 706 mmHg 43%
    06:00 +29°C° 0 mm 2 m/s 706 mmHg 40%
    07:00 +30°C° 0 mm 2 m/s 707 mmHg 38%
    08:00 +34°C° 0 mm 3 m/s 707 mmHg 33%
    09:00 +36°C° 0 mm 4 m/s 707 mmHg 28%
    10:00 +40°C° 0 mm 6 m/s 707 mmHg 23%
    11:00 +41°C° 0 mm 6 m/s 707 mmHg 21%
    12:00 +42°C° 0 mm 6 m/s 706 mmHg 20%
    13:00 +44°C° 0 mm 6 m/s 706 mmHg 19%
    14:00 +44°C° 0 mm 6 m/s 705 mmHg 18%
    15:00 +43°C° 0 mm 5 m/s 705 mmHg 17%
    16:00 +45°C° 0 mm 5 m/s 705 mmHg 17%
    17:00 +41°C° 0.2 mm 4 m/s 705 mmHg 21%
    18:00 +38°C° 0.2 mm 4 m/s 705 mmHg 26%
    19:00 +35°C° 0.2 mm 3 m/s 705 mmHg 30%
    20:00 +34°C° 0.3 mm 3 m/s 705 mmHg 36%
    21:00 +31°C° 0.3 mm 2 m/s 706 mmHg 43%
    22:00 +30°C° 0.3 mm 2 m/s 706 mmHg 49%
    23:00 +29°C° 0.2 mm 2 m/s 706 mmHg 54%

    27 Janvier, Dimanche

    Heure Température Précipitation Vent Pression Humidité
    00:00 +28°C° 0.2 mm 2 m/s 705 mmHg 58%
    01:00 +27°C° 0.2 mm 2 m/s 705 mmHg 62%
    02:00 +26°C° 0 mm 2 m/s 705 mmHg 63%
    03:00 +26°C° 0 mm 1 m/s 705 mmHg 64%
    04:00 +26°C° 0 mm 1 m/s 705 mmHg 65%
    05:00 +26°C° 0 mm 1 m/s 705 mmHg 62%
    06:00 +27°C° 0 mm 1 m/s 706 mmHg 59%
    07:00 +28°C° 0 mm 1 m/s 706 mmHg 56%
    08:00 +29°C° 0 mm 1 m/s 707 mmHg 51%
    09:00 +31°C° 0 mm 1 m/s 707 mmHg 47%
    10:00 +32°C° 0 mm 2 m/s 708 mmHg 42%
    11:00 +35°C° 0 mm 3 m/s 708 mmHg 37%
    12:00 +37°C° 0 mm 3 m/s 708 mmHg 33%
    13:00 +40°C° 0 mm 4 m/s 708 mmHg 28%
    14:00 +37°C° 0.5 mm 4 m/s 707 mmHg 36%
    15:00 +34°C° 0.5 mm 4 m/s 707 mmHg 44%
    16:00 +32°C° 0.5 mm 4 m/s 707 mmHg 52%
    17:00 +28°C° 1 mm 4 m/s 707 mmHg 64%
    18:00 +25°C° 1 mm 3 m/s 708 mmHg 75%
    19:00 +22°C° 1 mm 3 m/s 708 mmHg 86%
    20:00 +21°C° 0.8 mm 3 m/s 708 mmHg 87%
    21:00 +21°C° 0.8 mm 2 m/s 709 mmHg 88%
    22:00 +21°C° 0.8 mm 2 m/s 709 mmHg 89%
    23:00 +21°C° 0 mm 2 m/s 709 mmHg 90%

    28 Janvier, Lundi

    Heure Température Précipitation Vent Pression Humidité
    00:00 +21°C° 0 mm 1 m/s 708 mmHg 91%
    01:00 +21°C° 0 mm 1 m/s 708 mmHg 92%
    02:00 +21°C° 0.1 mm 1 m/s 708 mmHg 92%
    03:00 +21°C° 0.1 mm 1 m/s 708 mmHg 92%
    04:00 +21°C° 0.1 mm 1 m/s 708 mmHg 91%
    05:00 +22°C° 0 mm 1 m/s 709 mmHg 89%
    06:00 +22°C° 0 mm 1 m/s 709 mmHg 87%
    07:00 +23°C° 0 mm 1 m/s 709 mmHg 85%
    08:00 +25°C° 0 mm 1 m/s 709 mmHg 77%
    09:00 +27°C° 0 mm 2 m/s 710 mmHg 68%
    10:00 +29°C° 0 mm 2 m/s 710 mmHg 59%
    11:00 +31°C° 0 mm 3 m/s 710 mmHg 52%
    12:00 +34°C° 0 mm 4 m/s 710 mmHg 46%
    13:00 +35°C° 0 mm 5 m/s 710 mmHg 39%
    14:00 +35°C° 0 mm 5 m/s 709 mmHg 40%
    15:00 +34°C° 0 mm 5 m/s 709 mmHg 40%
    16:00 +34°C° 0 mm 5 m/s 709 mmHg 41%
    17:00 +32°C° 0 mm 4 m/s 709 mmHg 46%
    18:00 +30°C° 0 mm 2 m/s 709 mmHg 51%
    19:00 +28°C° 0 mm 1 m/s 709 mmHg 55%
    20:00 +27°C° 0 mm 1 m/s 710 mmHg 60%
    21:00 +25°C° 0 mm 1 m/s 710 mmHg 65%
    22:00 +24°C° 0 mm 1 m/s 710 mmHg 71%
    23:00 +23°C° 0 mm 1 m/s 710 mmHg 75%
    Voir plus